Trophy Lakes Weather Center

Moon Phase Calendar



Trophy Lakes Water Level
Online Cameras

 


      

Current Conditions in Shell Point
2/25/2021 12:00:30 AM

53°F
Feels Like 49
Clouds
Humidity
67%
Pressure
30.12"
Wind
4.6 mph (SW)
Dew Point
42°F
UV Index
0/10 (Low)
Visibility
6 mi

Hourly Forecast

Date & Time Thu, Feb 25
12:00 AM
Thu, Feb 25
1:00 AM
Thu, Feb 25
2:00 AM
Thu, Feb 25
3:00 AM
Thu, Feb 25
4:00 AM
Thu, Feb 25
5:00 AM
Thu, Feb 25
6:00 AM
Thu, Feb 25
7:00 AM
Thu, Feb 25
8:00 AM
Thu, Feb 25
9:00 AM
Thu, Feb 25
10:00 AM
Thu, Feb 25
11:00 AM
Thu, Feb 25
12:00 PM
Thu, Feb 25
1:00 PM
Thu, Feb 25
2:00 PM
Thu, Feb 25
3:00 PM
Thu, Feb 25
4:00 PM
Thu, Feb 25
5:00 PM
Thu, Feb 25
6:00 PM
Thu, Feb 25
7:00 PM
Thu, Feb 25
8:00 PM
Thu, Feb 25
9:00 PM
Thu, Feb 25
10:00 PM
Thu, Feb 25
11:00 PM
Fri, Feb 26
12:00 AM
Fri, Feb 26
1:00 AM
Fri, Feb 26
2:00 AM
Fri, Feb 26
3:00 AM
Fri, Feb 26
4:00 AM
Fri, Feb 26
5:00 AM
Fri, Feb 26
6:00 AM
Fri, Feb 26
7:00 AM
Fri, Feb 26
8:00 AM
Fri, Feb 26
9:00 AM
Fri, Feb 26
10:00 AM
Fri, Feb 26
11:00 AM
Fri, Feb 26
12:00 PM
Fri, Feb 26
1:00 PM
Fri, Feb 26
2:00 PM
Fri, Feb 26
3:00 PM
Fri, Feb 26
4:00 PM
Fri, Feb 26
5:00 PM
Fri, Feb 26
6:00 PM
Fri, Feb 26
7:00 PM
Fri, Feb 26
8:00 PM
Fri, Feb 26
9:00 PM
Fri, Feb 26
10:00 PM
Fri, Feb 26
11:00 PM
Condition
Clouds

Clear

Clear

Clear

Clear

Clear

Clear

Clear

Clear

Clear

Clear

Clear

Clear

Clear

Clear

Clear

Clouds

Clouds

Clouds

Clouds

Clouds

Clouds

Clouds

Clouds

Clouds

Clouds

Clouds

Clouds

Clouds

Clouds

Clouds

Rain

Rain

Rain

Clouds

Rain

Rain

Rain

Rain

Rain

Rain

Rain

Rain

Rain

Rain

Rain

Rain

Rain
Temperature 53°F53°F53°F52°F52°F51°F51°F50°F53°F58°F63°F68°F70°F72°F74°F74°F73°F69°F65°F63°F63°F63°F62°F62°F62°F61°F59°F59°F59°F59°F60°F60°F61°F63°F65°F66°F66°F67°F66°F64°F66°F65°F64°F63°F63°F63°F62°F62°F
Feels Like 48°F48°F48°F48°F47°F46°F46°F45°F48°F53°F59°F63°F67°F69°F71°F72°F71°F67°F64°F63°F62°F61°F60°F60°F59°F57°F56°F56°F56°F56°F56°F56°F57°F58°F60°F60°F60°F60°F61°F60°F62°F62°F61°F63°F63°F63°F64°F64°F
Cloudiness 20%10%4%1%0%0%0%0%0%0%0%0%0%0%0%1%15%35%48%55%100%100%91%93%94%92%16%19%18%37%49%57%100%100%100%96%94%94%97%99%91%93%95%95%100%99%99%99%
Visibility 6 mi6 mi6 mi6 mi6 mi6 mi6 mi6 mi6 mi6 mi6 mi6 mi6 mi6 mi6 mi6 mi6 mi6 mi6 mi6 mi6 mi6 mi6 mi6 mi6 mi6 mi6 mi6 mi6 mi6 mi6 mi6 mi6 mi6 mi6 mi6 mi6 mi6 mi6 mi6 mi6 mi6 mi6 mi6 mi6 mi6 mi6 mi6 mi
Precipitation 0%0%0%0%0%0%0%0%0%0%0%0%0%0%0%0%0%0%0%0%0%0%0%0%0%0%0%0%0%0%0%20%27%24%10%34%26%33%50%55%63%69%78%78%79%72%67%75%
Humidity 67%70%72%73%72%73%73%74%68%58%51%44%41%40%40%41%44%55%62%65%65%66%68%67%71%75%83%88%91%89%87%88%87%81%76%72%71%72%73%80%78%81%85%90%90%90%91%91%
Dew Point 42°F44°F44°F44°F43°F43°F43°F42°F43°F44°F45°F45°F46°F47°F48°F49°F50°F52°F52°F52°F51°F52°F52°F52°F52°F53°F54°F55°F56°F56°F56°F57°F57°F57°F57°F57°F57°F57°F58°F58°F59°F59°F59°F60°F60°F60°F60°F60°F
Pressure 30.12"30.12"30.09"30.09"30.09"30.12"30.12"30.15"30.15"30.18"30.18"30.18"30.18"30.15"30.12"30.12"30.12"30.12"30.15"30.15"30.18"30.18"30.15"30.15"30.15"30.18"30.18"30.18"30.18"30.18"30.18"30.21"30.21"30.24"30.24"30.24"30.24"30.21"30.18"30.15"30.15"30.15"30.18"30.18"30.21"30.21"30.18"30.18"
Wind Speed 6.2 mph5.9 mph5.6 mph5.4 mph5.4 mph5.3 mph5.1 mph5.4 mph5.6 mph5.7 mph5.4 mph5.5 mph5.2 mph4.6 mph3.8 mph3.4 mph3.1 mph3.3 mph3 mph2.3 mph3 mph4.2 mph5.1 mph5.6 mph6.7 mph7.9 mph7.8 mph8 mph8.1 mph10.1 mph10.3 mph10 mph11 mph12 mph12.5 mph14.1 mph14.4 mph15.1 mph13.4 mph12.1 mph11.7 mph10.2 mph9.7 mph5 mph4.9 mph4.1 mph3.4 mph2.6 mph
Wind
Direction
236°
SW
236°
SW
246°
WSW
247°
WSW
256°
WSW
264°
W
262°
W
260°
W
262°
W
270°
W
268°
W
278°
W
288°
WNW
288°
WNW
282°
WNW
267°
W
246°
WSW
195°
SSW
183°
S
159°
SSE
127°
SE
134°
SE
133°
SE
122°
ESE
90°
E
80°
E
77°
ENE
78°
ENE
73°
ENE
75°
ENE
76°
ENE
73°
ENE
76°
ENE
79°
E
79°
E
81°
E
84°
E
90°
E
89°
E
89°
E
103°
ESE
111°
ESE
118°
ESE
116°
ESE
103°
ESE
103°
ESE
98°
E
112°
ESE

Daily Forecast

Date High Low Precip. Humidity
Today
Feb 25

Clear
74 °F
50 °F
0%
39%
Friday
Feb 26

Rain
70 °F
59 °F
39%
65%
Saturday
Feb 27

Clear
76 °F
55 °F
12%
47%
Sunday
Feb 28

Rain
76 °F
65 °F
45%
63%
Monday
Mar 1

Rain
72 °F
56 °F
100%
72%
Tuesday
Mar 2

Clouds
55 °F
48 °F
80%
49%
Wednesday
Mar 3

Rain
53 °F
49 °F
100%
94%
Thursday
Mar 4

Clear
65 °F
45 °F
0%
47%
Friday
Mar 5

Clear
63 °F
50 °F
7%
51%
Saturday
Mar 6

Rain
57 °F
52 °F
52%
87%
Sunday
Mar 7

Clouds
62 °F
49 °F
3%
53%
Monday
Mar 8

Clouds
60 °F
49 °F
0%
66%
Tuesday
Mar 9

Clouds
66 °F
54 °F
4%
67%
Wednesday
Mar 10

Rain
63 °F
60 °F
53%
70%
Thursday
Mar 11

Rain
72 °F
53 °F
100%
66%
Friday
Mar 12

Clouds
63 °F
45 °F
0%
49%


Temperature 8-14 Day Outlook



Precipitation 8-14 Day Outlook




Quick Links
Trophy Lakes News
Trophy Lakes Photos
Trophy Lakes Videos




About Us
Contact Us
Site Map
Search Site
Advertise With Us
   
Trophy.LakesOnline.com
THE TROPHY LAKES WEBSITE

Copyright 2021, Lakes Online
Privacy    |    Legal